EA5SW-13 Weather Reports


Display with metric or nautical units.
time (UTC)temp
F
wind
direction
speed
MPH
gust
MPH
rain 1hr
in
rain 24hr
in
rain mn
in
humidity
%
barometer
mb
20260508180629 73 0.0 1.0 0.00 0.11 0.00 57
20260508175653 74 0.0 1.0 0.00 0.13 0.00 55
20260508174629 74 0.0 1.0 0.00 0.17 0.00 54
20260508173653 74 0.0 1.0 0.00 0.17 0.00 54
20260508172629 73 0.0 1.0 0.00 0.17 0.00 54
20260508171652 73 0.0 1.0 0.00 0.17 0.00 52
20260508170629 75 0.0 1.0 0.00 0.17 0.00 51
20260508165653 76 0.0 1.0 0.00 0.17 0.00 50
20260508164629 76 0.0 1.0 0.00 0.17 0.00 50
20260508163653 76 0.0 1.0 0.00 0.17 0.00 51
20260508162649 76 0.0 1.0 0.00 0.17 0.00 48
20260508161653 77 0.0 1.0 0.00 0.17 0.00 47
20260508160629 0 0.0 0.0 0.00 0.17 0.00
20260508155653 77 0.0 1.0 0.00 0.17 0.00 51
20260508154629 76 180 1.0 2.0 0.00 0.17 0.00 49
20260508153713 78 0.0 1.0 0.00 0.17 0.00 50
20260508152650 77 135 0.0 2.0 0.00 0.17 0.00 51
20260508151653 76 0.0 1.0 0.00 0.17 0.00 52
20260508150629 75 0.0 1.0 0.00 0.17 0.00 55
20260508145653 77 0.0 2.0 0.00 0.17 0.00 50
20260508144629 78 0.0 1.0 0.00 0.17 0.00 51
20260508143653 76 0.0 2.0 0.00 0.17 0.00 50
20260508142709 76 315 0.0 2.0 0.00 0.17 0.00 46
20260508141653 76 0.0 3.0 0.00 0.17 0.00 48
20260508140717 0 0.0 0.0 0.00 0.17 0.00
20260508135653 76 300 1.0 2.0 0.00 0.17 0.00 52
20260508134709 75 0.0 1.0 0.00 0.17 0.00 52
20260508133653 73 0.0 1.0 0.00 0.17 0.00 58
20260508132709 70 0.0 1.0 0.00 0.17 0.00 61
20260508131653 70 0.0 1.0 0.00 0.17 0.00 60
20260508130630 70 0.0 1.0 0.00 0.17 0.00 62
20260508125654 70 0.0 1.0 0.00 0.17 0.00 61
20260508124629 70 0.0 1.0 0.00 0.17 0.00 65
20260508123653 68 0.0 0.0 0.00 0.17 0.00 68
20260508122630 67 0.0 0.0 0.00 0.17 0.00 69
20260508121653 66 0.0 0.0 0.00 0.17 0.00 68
20260508120629 0 0.0 0.0 0.00 0.17 0.00
20260508115733 66 0.0 0.0 0.00 0.17 0.00 67
20260508114650 66 0.0 0.0 0.00 0.17 0.00 65
20260508113653 66 0.0 1.0 0.00 0.17 0.00 64
20260508112630 66 0.0 0.0 0.00 0.17 0.00 64
20260508111653 65 0.0 0.0 0.00 0.17 0.00 64
20260508110630 65 0.0 0.0 0.00 0.17 0.00 64
20260508105653 66 0.0 0.0 0.00 0.17 0.00 69
20260508104630 65 0.0 0.0 0.00 0.17 0.00 69
20260508103654 65 0.0 0.0 0.00 0.17 0.00 68
20260508102629 65 0.0 0.0 0.00 0.17 0.00 66
20260508101653 66 0.0 0.0 0.00 0.17 0.00 66
20260508100630 66 0.0 0.0 0.00 0.17 0.00 65
20260508095654 67 0.0 0.0 0.00 0.17 0.00 66
20260508094630 66 0.0 0.0 0.00 0.17 0.00 65
20260508093734 66 0.0 0.0 0.00 0.17 0.00 64
20260508092630 66 0.0 0.0 0.00 0.17 0.00 63
20260508091654 65 0.0 0.0 0.00 0.17 0.00 64
20260508090630 0 0.0 0.0 0.00 0.17 0.00
20260508085654 64 0.0 1.0 0.00 0.17 0.00 65
20260508084630 63 0.0 1.0 0.00 0.17 0.00 70
20260508083714 63 0.0 0.0 0.00 0.17 0.00 72
20260508082630 62 0.0 0.0 0.00 0.17 0.00 73
20260508081653 61 0.0 0.0 0.00 0.17 0.00 73
20260508080630 60 0.0 1.0 0.00 0.17 0.00 72
20260508075654 60 0.0 0.0 0.00 0.17 0.00 73
20260508074630 59 0.0 0.0 0.00 0.17 0.00 73
20260508073653 59 0.0 1.0 0.00 0.17 0.00 74
20260508072630 58 0.0 1.0 0.00 0.17 0.00 74
20260508071654 58 0.0 1.0 0.00 0.17 0.00 75
20260508070630 58 0.0 1.0 0.00 0.17 0.00 77
20260508065654 57 0.0 0.0 0.00 0.17 0.00 77
20260508064630 57 0.0 1.0 0.00 0.17 0.00 78
20260508063654 57 0.0 1.0 0.00 0.17 0.00 80
20260508062630 56 0.0 1.0 0.00 0.17 0.00 81
20260508061654 56 0.0 0.0 0.00 0.17 0.00 82
20260508060630 56 0.0 1.0 0.00 0.17 0.00 82
20260508055654 56 0.0 0.0 0.00 0.17 0.00 83
20260508054650 55 0.0 1.0 0.00 0.17 0.00 83
20260508053734 55 0.0 1.0 0.00 0.17 0.00 83
20260508052630 55 0.0 0.0 0.00 0.17 0.00 83
20260508051654 55 0.0 0.0 0.00 0.17 0.00 82
20260508050630 55 0.0 1.0 0.00 0.17 0.00 82
20260508045430 55 0.0 1.0 0.00 0.17 0.00 82
20260508044455 55 0.0 2.0 0.00 0.17 0.00 82
20260508043430 55 0.0 0.0 0.00 0.17 0.00 83
20260508042455 55 0.0 0.0 0.00 0.17 0.00 83
20260508041431 55 0.0 0.0 0.00 0.17 0.00 83
20260508040454 55 0.0 1.0 0.00 0.17 0.00 83
20260508035254 55 0.0 0.0 0.00 0.17 0.00 83
20260508034230 55 0.0 0.0 0.00 0.17 0.00 83
20260508033254 55 0.0 0.0 0.00 0.17 0.00 83
20260508032230 55 0.0 0.0 0.00 0.17 0.00 83
20260508031314 55 0.0 0.0 0.00 0.17 0.00 83
20260508030231 55 0.0 0.0 0.00 0.17 0.00 83
20260508025734 55 0.0 0.0 0.00 0.17 0.00 83
20260508024631 56 0.0 0.0 0.00 0.17 0.00 83
20260508023654 56 0.0 0.0 0.00 0.17 0.00 84
20260508022630 56 0.0 1.0 0.00 0.17 0.00 85
20260508021654 56 0.0 1.0 0.00 0.17 0.00 85
20260508020630 0 0.0 0.0 0.00 0.17 0.00
20260508015654 56 0.0 1.0 0.00 0.17 0.00 85
20260508014630 56 0.0 1.0 0.00 0.17 0.00 85
20260508013654 56 0.0 0.0 0.00 0.17 0.00 86
20260508012630 56 0.0 0.0 0.00 0.17 0.00 86
20260508011654 56 0.0 1.0 0.00 0.17 0.00 87
20260508010631 56 0.0 0.0 0.00 0.17 0.00 87
20260508005655 57 0.0 0.0 0.00 0.17 0.00 88
20260508004630 57 0.0 0.0 0.00 0.17 0.00 88
20260508003654 57 0.0 0.0 0.00 0.17 0.00 89
20260508002630 57 0.0 1.0 0.00 0.17 0.00 89
20260508001715 57 0.0 2.0 0.00 0.17 0.00 89
20260508000630 0 0.0 0.0 0.00 0.17 0.00
20260507234630 57 0.0 0.0 0.00 0.17 0.00 88
20260507233654 57 0.0 0.0 0.00 0.17 0.00 88
20260507232630 57 0.0 0.0 0.00 0.17 0.00 88
20260507231655 57 0.0 0.0 0.00 0.17 0.00 88
20260507230630 57 0.0 1.0 0.00 0.17 0.00 88
20260507225654 58 0.0 1.0 0.00 0.17 0.00 88
20260507224630 58 0.0 0.0 0.00 0.17 0.00 88
20260507223714 58 0.0 0.0 0.00 0.17 0.00 88
20260507222631 58 0.0 0.0 0.00 0.17 0.00 88
20260507221714 58 0.0 1.0 0.00 0.17 0.00 88
20260507220630 0 0.0 0.0 0.00 0.17 0.00
20260507215654 58 0.0 0.0 0.00 0.17 0.17 89
20260507214630 58 0.0 1.0 0.00 0.17 0.17 89
20260507213654 58 0.0 0.0 0.00 0.17 0.17 89
20260507212650 58 0.0 0.0 0.00 0.17 0.17 88
20260507211654 59 0.0 0.0 0.00 0.17 0.17 88
20260507210631 0 0.0 0.0 0.00 0.17 0.17
20260507205654 59 0.0 0.0 0.00 0.17 0.17 88
20260507204631 59 0.0 0.0 0.00 0.17 0.17 88
20260507203656 58 0.0 0.0 0.00 0.17 0.17 89
20260507202630 58 0.0 0.0 0.00 0.17 0.17 89
20260507201715 58 0.0 0.0 0.01 0.17 0.17 88
20260507200631 58 0.0 0.0 0.01 0.17 0.17 88
20260507195654 58 0.0 0.0 0.02 0.17 0.17 87
20260507194631 58 0.0 0.0 0.04 0.17 0.17 87
20260507193654 58 0.0 0.0 0.06 0.17 0.17 87
20260507192631 58 0.0 0.0 0.07 0.17 0.17 87
20260507191654 58 0.0 0.0 0.07 0.15 0.15 87
20260507190631 58 0.0 1.0 0.09 0.15 0.15 86
20260507185714 58 0.0 0.0 0.11 0.14 0.14 85
20260507184631 58 0.0 1.0 0.13 0.13 0.13 84
20260507183655 58 0.0 0.0 0.11 0.11 0.11 83
20260507182630 58 0.0 0.0 0.09 0.09 0.09 82
20260507181655 59 0.0 0.0 0.08 0.08 0.08 80